Tracking 31027 objects as of 19-Jul-2025
HD Live streaming from Space Station
objects crossing your sky now

SITRO-AIS-11

Track SITRO-AIS-11 now!
10-day predictions
SITRO-AIS-11 is classified as:


NORAD ID: 57208
Int'l Code: 2023-091AU
Perigee: 490.1 km
Apogee: 503.4 km
Inclination: 97.6 °
Period: 94.4 minutes
Semi major axis: 6867 km
RCS: Unknown
Launch date: June 27, 2023
Source: (TBD)
Launch site: VOSTOCHNY COSMODROME (VOSTO)

Uplink (MHz):
Downlink (MHz): 437.050
Beacon (MHz):
Mode: 1145baudAFSK
Call sign: RS41S
Status: Unknown


Uplink (MHz):
Downlink (MHz): 401.320
Beacon (MHz):
Mode: 2k4 GMSK_USP
Call sign: SC2213
Status: Active


Uplink (MHz):
Downlink (MHz): 436.260
Beacon (MHz):
Mode: LoRa
Call sign: RS52SD
Status: Unknown

Your satellite tracking list
STARLINK-1243
Track 1 satellite(s)




NASA's NSSDC Master Catalog

Two Line Element Set (TLE):
1 57208U 23091AU  25199.81928356  .00009941  00000-0  39610-3 0  9990
2 57208  97.5572 260.2688 0009668 160.7927 199.3677 15.25383435113750
Source of the keplerian elements: AFSPC